Time_in_sec,Mx,My,Mz
1323446759.30146837,-0.40542957,0.47392067,-0.80303133
1323446759.35253644,-0.40742114,0.47404709,-0.80161321
1323446759.40460968,-0.40712628,0.47288242,-0.80566347
1323446759.45258832,-0.40565196,0.47379622,-0.80240595
1323446759.50450420,-0.40511957,0.47402844,-0.80212384
1323446759.55359983,-0.40739936,0.47308150,-0.80135047
1323446759.60450411,-0.40725622,0.47502375,-0.80313915
1323446759.65259361,-0.40622547,0.47321129,-0.80345184
1323446759.70461702,-0.40562105,0.47258854,-0.80201370
1323446759.75437021,-0.40734687,0.47465715,-0.80250484
1323446759.80451083,-0.40573218,0.47477293,-0.80369061
1323446759.85364676,-0.40669605,0.47270361,-0.80041802
1323446759.90229392,-0.40598309,0.47261086,-0.80381632
1323446759.95364881,-0.40633884,0.47393063,-0.80308115
1323446760.00255346,-0.40512002,0.47585455,-0.80417413
1323446760.05252576,-0.40618613,0.47380468,-0.80268991
1323446760.10485673,-0.40844658,0.47203612,-0.80394703
1323446760.15353012,-0.40524957,0.47306845,-0.80225146
1323446760.20483470,-0.40527788,0.47295365,-0.80276150
1323446760.25332379,-0.40550262,0.47393459,-0.80430877
1323446760.30216002,-0.40522709,0.47359154,-0.80632854
1323446760.35318422,-0.40690640,0.47175890,-0.80195075
1323446760.40479922,-0.40642089,0.47514805,-0.80436766
1323446760.45213604,-0.40635985,0.47381446,-0.80346346
1323446760.50553703,-0.40599769,0.47261363,-0.80407178
1323446760.55253053,-0.40779644,0.47212574,-0.80162007
1323446760.60550857,-0.40599567,0.47429577,-0.80382895
1323446760.65249109,-0.40542138,0.47379893,-0.80290270
1323446760.70203948,-0.40497664,0.47404787,-0.80415344
1323446760.75252533,-0.40638176,0.47381863,-0.80384672
1323446760.80151391,-0.40219122,0.47508863,-0.80286247
1323446760.84449673,-0.40708393,0.47246715,-0.80043757
1323446760.90165043,-0.40561759,0.47681746,-0.80369890
1323446760.95351529,-0.40572229,0.47344908,-0.80368066
1323446761.00852394,-0.40419075,0.47511968,-0.80386341
1323446761.05257225,-0.40594691,0.47185957,-0.80100769
1323446761.10188460,-0.40521362,0.47392619,-0.80378354
1323446761.15361309,-0.40608916,0.47332883,-0.80331790
1323446761.20490527,-0.40581071,0.47454754,-0.80509400
1323446761.25606298,-0.40585464,0.47359446,-0.80598092
1323446761.30460906,-0.40606332,0.47358757,-0.80510098
1323446761.35255885,-0.40828377,0.47250915,-0.80330479
1323446761.40447664,-0.40534902,0.47368827,-0.80391657
1323446761.45256948,-0.40747947,0.47287974,-0.80504608
1323446761.50457501,-0.40641639,0.47454631,-0.80436313
1323446761.55358648,-0.40719965,0.47215199,-0.80477095
1323446761.60453033,-0.40551543,0.47369668,-0.80456245
1323446761.65210724,-0.40502876,0.47321653,-0.80516905
1323446761.70552397,-0.40502754,0.47598043,-0.80480665
1323446761.75251412,-0.40689191,0.47432655,-0.80591553
1323446761.80162573,-0.40412399,0.47380832,-0.80512375
1323446761.85355043,-0.40708157,0.47275370,-0.80489606
1323446761.90162015,-0.40643829,0.47455049,-0.80474633
1323446761.95265770,-0.40499574,0.47465238,-0.80441344
1323446762.00165319,-0.40486774,0.47393027,-0.80452865
1323446762.05316854,-0.40637636,0.47309652,-0.80384129
1323446762.10163856,-0.40581533,0.47418788,-0.80521899
1323446762.15264106,-0.40531981,0.47368273,-0.80340564
1323446762.20466137,-0.40529025,0.47442150,-0.80506462
1323446762.25361586,-0.40569004,0.47382680,-0.80533689
1323446762.30149531,-0.40615851,0.47382274,-0.80447119
1323446762.35252357,-0.40628174,0.47372603,-0.80664188
1323446762.40161037,-0.40630457,0.47385058,-0.80702603
1323446762.45423150,-0.40579802,0.47382402,-0.80496079
1323446762.50160408,-0.40729180,0.47277045,-0.80630839
1323446762.55250096,-0.40631130,0.47298726,-0.80498290
1323446762.60554028,-0.40441018,0.47441709,-0.80552572
1323446762.65344167,-0.40525642,0.47477558,-0.80442858
1323446762.70449090,-0.40755418,0.47409576,-0.80620480
1323446762.75364804,-0.40627918,0.47454348,-0.80422825
1323446762.80165267,-0.40630749,0.47442871,-0.80473834
1323446762.85266829,-0.40653098,0.47250175,-0.80435485
1323446762.90164995,-0.40585184,0.47419482,-0.80585772
1323446762.95352435,-0.40574107,0.47479793,-0.80611062
1323446763.00548625,-0.40706754,0.47361562,-0.80681145
1323446763.05365205,-0.40782171,0.47239426,-0.80429739
1323446763.10220742,-0.40683359,0.47335401,-0.80501413
1323446763.15263128,-0.40602589,0.47346026,-0.80446136
1323446763.20164680,-0.40724114,0.47458681,-0.80746448
1323446763.25526905,-0.40456021,0.47418198,-0.80591428
1323446763.30164933,-0.40627727,0.47312430,-0.80663735
1323446763.35253811,-0.40667719,0.47370809,-0.80449873
1323446763.40451336,-0.40563488,0.47504139,-0.80648851
1323446763.45366359,-0.40562138,0.47323614,-0.80647492
1323446763.50205302,-0.40599805,0.47540116,-0.80600160
1323446763.55365634,-0.40652817,0.47310212,-0.80423164
1323446763.60164118,-0.40690821,0.47553146,-0.80605239
1323446763.65251994,-0.40648121,0.47443846,-0.80551189
1323446763.70164275,-0.40419322,0.47526366,-0.80615658
1323446763.75254226,-0.40568635,0.47430679,-0.80521280
1323446763.80204368,-0.40651953,0.47468612,-0.80615240
1323446763.85252047,-0.40647715,0.47213095,-0.80345792
1323446763.90191197,-0.40567723,0.47406471,-0.80508322
1323446763.95365286,-0.40601084,0.47516322,-0.80625528
1323446764.00579071,-0.40535790,0.47371331,-0.80633658
1323446764.05365086,-0.40559250,0.47248623,-0.80379403
1323446764.10165191,-0.40584275,0.47395274,-0.80572814
1323446764.15253592,-0.40727574,0.47531447,-0.80798090
1323446764.20553160,-0.40684146,0.47422010,-0.80731267
1323446764.25263333,-0.40711069,0.47372070,-0.80528653
1323446764.30179024,-0.40560207,0.47455442,-0.80597395
1323446764.35366082,-0.40531957,0.47346565,-0.80569607
1323446764.40453601,-0.40714720,0.47372764,-0.80592525
1323446764.45616078,-0.40460584,0.47443104,-0.80668253
1323446764.50577593,-0.40450975,0.47407553,-0.80731142
1323446764.55351019,-0.40707606,0.47299302,-0.80477017
1323446764.60451055,-0.40705740,0.47421458,-0.80656046
1323446764.65332246,-0.40595454,0.47250855,-0.80559665
1323446764.70176172,-0.40473592,0.47250962,-0.80693066
1323446764.75263286,-0.40581420,0.47385043,-0.80750853
1323446764.80462599,-0.40471336,0.47613403,-0.80835587
1323446764.85504079,-0.40661672,0.47323915,-0.80576545
1323446764.90451527,-0.40513000,0.47407708,-0.80683601
1323446764.95651531,-0.40561038,0.47371477,-0.80622309
1323446765.00452876,-0.40561846,0.47479790,-0.80623120
1323446765.05352306,-0.40714112,0.47096238,-0.80615991
1323446765.10149455,-0.40541169,0.47408408,-0.80723351
1323446765.15264153,-0.40540439,0.47408271,-0.80710578
1323446765.20256186,-0.40538070,0.47383782,-0.80672073
1323446765.25350761,-0.40653965,0.47444960,-0.80653381
1323446765.30461359,-0.40711313,0.47386467,-0.80757970
1323446765.35253596,-0.40549430,0.47263435,-0.80659103
1323446765.40464354,-0.40625310,0.47458518,-0.80830175
1323446765.45250177,-0.40498787,0.47517824,-0.80874610
1323446765.50167418,-0.40565878,0.47336343,-0.80711454
1323446765.55359769,-0.40631682,0.47274795,-0.80510885
1323446765.60159731,-0.40655020,0.47567675,-0.80883509
1323446765.65253043,-0.40661457,0.47374281,-0.80793357
1323446765.70465159,-0.40619648,0.47481474,-0.80728161
1323446765.75348806,-0.40580049,0.47396800,-0.80725396
1323446765.80150628,-0.40593734,0.47471517,-0.80955875
1323446765.85248733,-0.40585160,0.47397774,-0.80814815
1323446765.90221953,-0.40547094,0.47517699,-0.80813587
1323446765.95349836,-0.40628782,0.47435141,-0.80893868
1323446766.00148273,-0.40598756,0.47460455,-0.81045204
1323446766.05654073,-0.40593138,0.47312838,-0.80738246
1323446766.10149574,-0.40591633,0.47483134,-0.80917639
1323446766.15347838,-0.40596017,0.47483969,-0.80994284
1323446766.20150757,-0.40423140,0.47433284,-0.80920798
1323446766.25348449,-0.40584803,0.47349635,-0.80814451
1323446766.30168772,-0.40606275,0.47411484,-0.80956131
1323446766.35252786,-0.40613061,0.47362372,-0.80854291
1323446766.40150142,-0.40441793,0.47410467,-0.81023526
1323446766.45204043,-0.40563655,0.47410360,-0.80890125
1323446766.50556421,-0.40535372,0.47375914,-0.81079334
1323446766.55252528,-0.40720630,0.47364205,-0.80923855
1323446766.60448980,-0.40524653,0.47484368,-0.81104982
1323446766.65365195,-0.40589958,0.47533220,-0.81108904
1323446766.70195746,-0.40403882,0.47532755,-0.81251520
1323446766.75250459,-0.40533921,0.47279495,-0.81065834
1323446766.80164433,-0.40526664,0.47460714,-0.81143123
1323446766.85536957,-0.40675715,0.47232780,-0.81060529
1323446766.90163660,-0.40442345,0.47386536,-0.81036115
1323446766.95254803,-0.40654096,0.47425616,-0.81111646
1323446767.00450134,-0.40540832,0.47521171,-0.81157064
1323446767.05271864,-0.40640050,0.47302759,-0.80880809
1323446767.10180378,-0.40572867,0.47472206,-0.81043869
1323446767.15360141,-0.40662479,0.47571427,-0.81240475
1323446767.20511770,-0.40448231,0.47570261,-0.81343347
1323446767.25367713,-0.40499774,0.47436219,-0.81128746
1323446767.30586290,-0.40694165,0.47378179,-0.81138968
1323446767.35264874,-0.40632275,0.47219485,-0.80981654
1323446767.40456796,-0.40612274,0.47628948,-0.81034410
1323446767.45363855,-0.40475076,0.47412145,-0.81152689
1323446767.50166321,-0.40652692,0.47511804,-0.81303185
1323446767.55250597,-0.40635085,0.47400290,-0.81008559
1323446767.59355879,-0.40689582,0.47545558,-0.81038046
1323446767.65465713,-0.40520135,0.47642073,-0.81233191
1323446767.70554161,-0.40571633,0.47678608,-0.81223536
1323446767.75249314,-0.40600127,0.47448698,-0.81070662
1323446767.80509043,-0.40584904,0.47618714,-0.81236571
1323446767.85263276,-0.40533462,0.47315460,-0.81053329
1323446767.89368963,-0.40515068,0.47470522,-0.80938828
1323446767.95252919,-0.40651613,0.47581375,-0.81048954
1323446767.99263930,-0.40631208,0.47546098,-0.81149453
1323446768.05354214,-0.40507889,0.47759917,-0.81004161
1323446768.09358382,-0.40707156,0.47592312,-0.80886537
1323446768.14455342,-0.40729597,0.47764838,-0.81258261
1323446768.20463395,-0.40576297,0.47833398,-0.81059361
1323446768.25357461,-0.40522888,0.47736409,-0.81043017
1323446768.30153465,-0.40525720,0.47510940,-0.81347162
1323446768.35351658,-0.40710425,0.47523159,-0.81179088
1323446768.40598917,-0.40608522,0.47498369,-0.81211537
1323446768.45256162,-0.40723675,0.47655550,-0.81168026
1323446768.50555778,-0.40898481,0.47574404,-0.81291610
1323446768.54554582,-0.40622556,0.47364181,-0.81020355
1323446768.60452986,-0.40803197,0.47594282,-0.80980939
1323446768.65251613,-0.40606308,0.47690234,-0.81149119
1323446768.70163155,-0.40563610,0.47580937,-0.81095070
1323446768.75251985,-0.40688863,0.47449276,-0.81037319
1323446768.80156589,-0.40617579,0.47557852,-0.81136060
1323446768.85664964,-0.40757868,0.47328249,-0.80900168
1323446768.90455222,-0.40675604,0.47413030,-0.81036335
1323446768.95252538,-0.40636435,0.47580814,-0.81009918
1323446769.00456047,-0.40641376,0.47461578,-0.81111211
1323446769.05277681,-0.40547743,0.47409663,-0.80838317
1323446769.10231733,-0.40646052,0.47520226,-0.80959082
1323446769.15255404,-0.40563655,0.47410360,-0.80890125
1323446769.20558548,-0.40477684,0.47407976,-0.80745339
1323446769.25651240,-0.40599871,0.47530442,-0.80829298
1323446769.30454683,-0.40781182,0.47460222,-0.80838716
1323446769.34555864,-0.40646920,0.47575817,-0.80513865
1323446769.40452313,-0.40768275,0.47568259,-0.80826044
1323446769.45264030,-0.40785939,0.47627050,-0.80674630
1323446769.50210810,-0.40585500,0.47638199,-0.80791074
1323446769.55365348,-0.40572375,0.47443411,-0.80585241
1323446769.60160160,-0.40571710,0.47433600,-0.80801600
1323446769.65250659,-0.40630895,0.47541374,-0.80691004
1323446769.70157933,-0.40500653,0.47395670,-0.80695575
1323446769.75251269,-0.40702552,0.47384799,-0.80604678
1323446769.80450439,-0.40607277,0.47661719,-0.80716038
1323446769.85263562,-0.40723529,0.47203860,-0.80540872
1323446769.90448928,-0.40508607,0.47503015,-0.80594909
1323446769.95263124,-0.40617916,0.47445089,-0.80702341
1323446770.00451279,-0.40593973,0.47442859,-0.80510020
1323446770.05543661,-0.40752047,0.47348845,-0.80568933
1323446770.10465002,-0.40693381,0.47505563,-0.80655968
1323446770.14564013,-0.40586546,0.47503868,-0.80599177
1323446770.20448947,-0.40557262,0.47647169,-0.80522197
1323446770.24465585,-0.40716183,0.47587034,-0.80364931
1323446770.30185103,-0.40725699,0.47610551,-0.80301952
1323446770.35353994,-0.40581197,0.47392356,-0.80292493
1323446770.39364338,-0.40763193,0.47492850,-0.80519634
1323446770.45222235,-0.40583873,0.47731701,-0.80524254
1323446770.50450802,-0.40676674,0.47514397,-0.80362254
1323446770.54454064,-0.40762588,0.47430313,-0.80289960
1323446770.60452199,-0.40579906,0.47512290,-0.80255079
1323446770.64452577,-0.40448987,0.47452915,-0.80463958
1323446770.69373298,-0.40605029,0.47574833,-0.80460632
1323446770.74571609,-0.40554512,0.47766826,-0.80459231
1323446770.79250455,-0.40540826,0.47692108,-0.80228752
1323446770.85639191,-0.40506947,0.47884941,-0.80291939
1323446770.89314532,-0.40737039,0.47682488,-0.80264890
1323446770.94450450,-0.40558928,0.47693226,-0.80318886
1323446771.00539303,-0.40470934,0.47810635,-0.80123907
1323446771.05311465,-0.40752354,0.47524506,-0.80099070
1323446771.09356403,-0.40645131,0.47452962,-0.80270958
1323446771.15251303,-0.40660998,0.47624236,-0.80527711
1323446771.20452666,-0.40674472,0.47610122,-0.80311882
1323446771.25189352,-0.40556026,0.47500387,-0.80291885
1323446771.30556059,-0.40676033,0.47526294,-0.80349571
1323446771.34552026,-0.40624389,0.47391254,-0.80142051
1323446771.40449977,-0.40587366,0.47730032,-0.80358905
1323446771.44500566,-0.40570757,0.47440770,-0.80330467
1323446771.50169659,-0.40624335,0.47657973,-0.80334944
1323446771.54641485,-0.40678057,0.47620490,-0.80146623
1323446771.59356618,-0.40657145,0.47438571,-0.80029583
1323446771.65350604,-0.40641180,0.47704586,-0.80170667
1323446771.69364905,-0.40574682,0.47691563,-0.80141467
1323446771.74451804,-0.40569624,0.47777057,-0.80269134
1323446771.80452585,-0.40684474,0.47619382,-0.80032367
1323446771.84564972,-0.40719441,0.47474828,-0.79982316
1323446771.89377928,-0.40634674,0.47693661,-0.80284834
1323446771.94449091,-0.40715924,0.47668779,-0.80123568
1323446771.99365377,-0.40623403,0.47826046,-0.80297893
1323446772.04459190,-0.40500283,0.47871652,-0.80176878
1323446772.09365177,-0.40582019,0.47618520,-0.80052221
1323446772.14554882,-0.40671518,0.47897989,-0.80224639
1323446772.20449924,-0.40587175,0.47802106,-0.80346674
1323446772.24463010,-0.40619785,0.47536924,-0.80270171
1323446772.29356050,-0.40802997,0.47623301,-0.80293542
1323446772.34211946,-0.40695935,0.47768110,-0.80441511
1323446772.39264393,-0.40544185,0.47848985,-0.80268252
1323446772.44454074,-0.40563557,0.47922450,-0.80371702
1323446772.49262714,-0.40564927,0.47910693,-0.80397159
1323446772.54454088,-0.40554139,0.47814825,-0.80446821
1323446772.59250331,-0.40659842,0.47585630,-0.80285442
1323446772.64519095,-0.40580121,0.47815111,-0.80448246
1323446772.69364524,-0.40531275,0.47743025,-0.80508727
1323446772.74554110,-0.40646246,0.47876137,-0.80465031
1323446772.79265141,-0.40757972,0.47672126,-0.80406028
1323446772.84468865,-0.40530071,0.47874996,-0.80471396
1323446772.89363360,-0.40609571,0.47792020,-0.80513358
1323446772.94451475,-0.40796536,0.47794986,-0.80612743
1323446772.99660063,-0.40544441,0.47767240,-0.80509615
1323446773.04451442,-0.40643841,0.47926083,-0.80643517
1323446773.09252214,-0.40683395,0.47828144,-0.80441254
1323446773.14508319,-0.40720499,0.47950727,-0.80622423
1323446773.19364119,-0.40457156,0.47863081,-0.80556458
1323446773.24273324,-0.40624267,0.47806838,-0.80768931
1323446773.29255772,-0.40705618,0.47697848,-0.80619806
1323446773.34511375,-0.40520924,0.47803476,-0.80546790
1323446773.39255452,-0.40653819,0.47913632,-0.80593044
1323446773.44451451,-0.40699181,0.47891241,-0.80709964
1323446773.49354720,-0.40523025,0.47791860,-0.80585021
1323446773.54174519,-0.40656057,0.47743475,-0.80426425
1323446773.59368300,-0.40692115,0.47647205,-0.80389512
1323446773.64170170,-0.40561241,0.47984430,-0.80550283
1323446773.69357133,-0.40646797,0.47852206,-0.80477625
1323446773.74163985,-0.40635154,0.47818598,-0.80731410
1323446773.79252076,-0.40631267,0.47707364,-0.80450279
1323446773.84465122,-0.40613222,0.47792715,-0.80577230
1323446773.89359117,-0.40648177,0.47744307,-0.80515128
1323446773.95266104,-0.40688586,0.47937295,-0.80518717
1323446773.99364710,-0.40550655,0.47720352,-0.80624223
1323446774.04587054,-0.40652829,0.47781247,-0.80592048
1323446774.09262252,-0.40800220,0.47721249,-0.80459619
1323446774.14453149,-0.40563118,0.47766131,-0.80383301
1323446774.19654512,-0.40661079,0.47732413,-0.80515754
1323446774.24452353,-0.40635088,0.47828272,-0.80502278
1323446774.29393911,-0.40512374,0.47751445,-0.80176687
1323446774.34448624,-0.40705001,0.47731453,-0.80378079
1323446774.39357853,-0.40674508,0.47888872,-0.80504864
1323446774.44449329,-0.40602165,0.47874737,-0.80373472
1323446774.49363112,-0.40600434,0.47838351,-0.80347657
1323446774.54160476,-0.40847784,0.47817123,-0.80373770
1323446774.59346962,-0.40700531,0.47718582,-0.80301344
1323446774.64549685,-0.40643427,0.47791472,-0.80426073
1323446774.69434166,-0.40637842,0.47922608,-0.80312103
1323446774.74451160,-0.40531936,0.47752839,-0.80292368
1323446774.79366446,-0.40593818,0.47654489,-0.80027652
1323446774.84229326,-0.40658629,0.47813740,-0.80236065
1323446774.89325643,-0.40656698,0.47945571,-0.80185962
1323446774.94503641,-0.40546760,0.47919250,-0.80077893
1323446774.99354482,-0.40570098,0.47858942,-0.80040544
1323446775.04490924,-0.40541625,0.47896567,-0.80217516
1323446775.09377503,-0.40632054,0.47654778,-0.80017012
1323446775.15267563,-0.40681598,0.47801435,-0.80186301
1323446775.19322324,-0.40607232,0.47693101,-0.80257863
1323446775.24216223,-0.40641934,0.47726434,-0.79954398
1323446775.29253912,-0.40866899,0.47619149,-0.79825878
1323446775.34203386,-0.40737510,0.47764370,-0.80036300
1323446775.40451527,-0.40512758,0.47821292,-0.79948008
1323446775.44473410,-0.40619054,0.47750777,-0.80004251
1323446775.49404001,-0.40667373,0.47654510,-0.79955280
1323446775.54450631,-0.40601042,0.47761697,-0.79914212
1323446775.59356451,-0.40652281,0.47665983,-0.79916334
1323446775.64485264,-0.40630898,0.47969356,-0.80184722
1323446775.69365072,-0.40678304,0.47848877,-0.80122793
1323446775.74590421,-0.40442237,0.47855574,-0.79842526
1323446775.80552006,-0.40804312,0.47739068,-0.79848772
1323446775.84549332,-0.40685293,0.47631556,-0.80045229
1323446775.89389849,-0.40623796,0.47799751,-0.80081260
1323446775.94451737,-0.40693891,0.47727004,-0.79957247
1323446775.99251056,-0.40667632,0.47786754,-0.79943502
1323446776.04634500,-0.40670833,0.47727275,-0.80006921
1323446776.09389210,-0.40530625,0.47711870,-0.79820871
1323446776.14449406,-0.40701184,0.47824538,-0.80072939
1323446776.19349027,-0.40742803,0.47789416,-0.80125898
1323446776.24178052,-0.40514117,0.47905678,-0.79961413
1323446776.29250479,-0.40556961,0.47760296,-0.79822659
1323446776.34574723,-0.40611842,0.47761419,-0.79876602
1323446776.39249969,-0.40471047,0.47844380,-0.79894954
1323446776.44450045,-0.40670362,0.47859383,-0.79982364
1323446776.49324346,-0.40725175,0.47870183,-0.79807180
1323446776.54460382,-0.40640956,0.47711897,-0.79712307
1323446776.59656787,-0.40801212,0.47714439,-0.79797494
1323446776.64564800,-0.40686274,0.47860083,-0.80034173
1323446776.69361973,-0.40602133,0.47809976,-0.79927349
1323446776.74550390,-0.40554503,0.47723773,-0.79784065
1323446776.79265189,-0.40861878,0.47630209,-0.79736549
1323446776.84160709,-0.40664530,0.47762129,-0.79892224
1323446776.89365268,-0.40543702,0.47724047,-0.79821676
1323446776.94453597,-0.40598392,0.47797245,-0.79863387
1323446776.99250913,-0.40792322,0.47775170,-0.79861110
1323446777.04452896,-0.40583032,0.47772613,-0.79824173
1323446777.09249616,-0.40666011,0.47570124,-0.79941869
1323446777.15252757,-0.40585008,0.47823396,-0.80079305
1323446777.19353437,-0.40442663,0.47680050,-0.80325162
